Location: Newark
(34.4697°S, 57.8467°W)
Time: 08:39:34
(UTC+00:00)

N. Korean satellite - Pass Details

Date: 22 July 2019
Orbit: 457 x 507 km, 97.2° (Epoch: 18 August)

Event Time Altitude Azimuth Distance (km) Brightness Sun altitude
Rises 08:43:07 0° 29° (NNE) 2,594 10.7 -26.4°
Reaches altitude 10° 08:45:17 10° 37° (NE) 1,713 9.9 -25.9°
Maximum altitude 08:48:43 38° 105° (ESE) 782 8.0 -25.2°
Enters shadow 08:49:58 29° 148° (SSE) 956 8.2 -25.0°
